Simultaneous Nadir Overpasses (SNOs) Predictions

Prediction of SNOs between NPP and TERRA Satellite Orbit:

Table of predicted SNOs for the next 14.0 days since TLE Epoch: 6/4/2016
Index Date (NPP) Time (NPP) Lat,Lon (NPP) SZA (NPP ) Date (TERRA) Time (TERRA) Lat,Lon (TERRA) SZA (TERRA ) Distance(km) Time Diff (sec)
1 06/06/2016 02:57:13 68.43, 134.49 45.63 06/06/2016 02:57:41 68.44, 134.50 45.64 1.46 28
2 06/06/2016 03:47:54 -68.31, -58.03 134.50 06/06/2016 03:47:11 -68.33, -58.00 134.48 2.49 43
3 06/08/2016 18:23:28 -68.84, 82.40 134.19 06/08/2016 18:24:39 -68.75, 83.12 134.29 30.55 71
4 06/08/2016 19:14:06 68.39,-109.69 45.35 06/08/2016 19:14:11 68.37,-109.71 45.32 2.46 5
5 06/08/2016 20:04:47 -68.26, 57.79 134.79 06/08/2016 20:03:41 -68.26, 57.79 134.79 0.64 66
6 06/11/2016 10:40:16 -68.48,-161.35 134.75 06/11/2016 10:41:13 -68.50,-161.32 134.74 1.86 57
7 06/11/2016 11:31:00 68.35, 6.13 45.11 06/11/2016 11:30:41 68.33, 6.12 45.09 2.27 19
8 06/11/2016 12:21:30 -67.63, 174.35 135.62 06/11/2016 12:20:20 -67.72, 173.04 135.52 56.18 70
9 06/14/2016 02:57:10 -68.45, -45.53 134.94 06/14/2016 02:57:43 -68.45, -45.50 134.94 1.12 33
10 06/14/2016 03:47:54 68.32, 121.95 44.93 06/14/2016 03:47:10 68.33, 122.00 44.94 2.78 44
11 06/16/2016 18:23:28 68.82, -97.57 45.35 06/16/2016 18:24:39 68.70, -96.94 45.21 28.68 71
12 06/16/2016 19:14:03 -68.36, 70.35 135.13 06/16/2016 19:14:13 -68.37, 70.29 135.12 2.92 10
13 06/16/2016 20:04:47 68.23,-122.18 44.75 06/16/2016 20:03:40 68.25,-122.20 44.77 2.49 67




NCC Satellite Simultaneous Nadir Overpasses (SNOs) Prediction Service
